STARLINK-33550 (62285 NORAD) Tracking and Keplerian Element Data

This shows tracking and keplerian element data for the satellite.

Feedback or suggestion? Click here.




ElementValue
Catalog62285
NameSTARLINK-33550
Epoch Orbit1019
Epoch Day35.11780543
Epoch Year2025
RAAN310.9113
Inclination43.0033
Eccentricity0.0001456
Argument of Perigee299.1533
Mean Anonmoly60.9178
Mean Motion15.40700234
Decay Rate2.555E-05
L11 62285U 24237U 25035.11780543 .00002555 00000+0 68400-4 0 9993
L22 62285 43.0033 310.9113 0001456 299.1533 60.9178 15.40700234 10192



Live tracking and technical data element details for STARLINK-33550 (NORAD 62285). STARLINK-33550 can be tracked NOW for your location showing map with azimuth and elevation plus other details from your city location.







IsCatalogInMostPopularTable: catalog: 62285, numindb: 14
Update: records affected: 1



GetName: 62285 STARLINK-33550

Hit Count: updated at: Mon, 19 May 2025 01:36:56 GMT